Provincetown, Massachusetts, United States (02657)
Lat: 42.06N, Lon: 70.18W
Wx Zone: MAZ022
Local Info
Past Weather Observations for Today

NOTE: This archive is for the closest National Weather Service station to Provincetown. Information may differ from the station used for current weather conditions.

Click here for Long-term Archive

Time Weather Temperature Dewpoint Humidity Pressure Winds Precip Visibility
21:35
Overcast
39°F / 4°C 32°F / 0°C 75% 29.98 in
(1015 mb)
N 6.9 mph
(N 11 kph)
- 10SM
21:15
Overcast
39°F / 4°C 32°F / 0°C 75% 29.98 in
(1015 mb)
N 8.1 mph
(N 13 kph)
- 10SM
20:55
Mostly Cloudy
39°F / 4°C 32°F / 0°C 75% 29.98 in
(1015 mb)
N 8.1 mph
(N 13 kph)
- 10SM
20:35
Overcast
39°F / 4°C 32°F / 0°C 75% 29.98 in
(1015 mb)
N 9.2 mph
(N 15 kph)
- 10SM
20:15
Overcast
39°F / 4°C 30°F / -1°C 70% 29.98 in
(1015 mb)
N 8.1 mph
(N 13 kph)
- 10SM
19:55
Overcast
39°F / 4°C 30°F / -1°C 70% 29.98 in
(1015 mb)
NNW 8.1 mph
(NNW 13 kph)
- 10SM
19:35
Overcast
39°F / 4°C 30°F / -1°C 70% 29.98 in
(1015 mb)
N 6.9 mph
(N 11 kph)
- 10SM
19:15
Overcast
39°F / 4°C 30°F / -1°C 70% 29.98 in
(1015 mb)
N 4.6 mph
(N 7 kph)
- 10SM
18:55
Overcast
39°F / 4°C 28°F / -2°C 65% 29.98 in
(1015 mb)
NNE 4.6 mph
(NNE 7 kph)
- 10SM
18:35
Overcast
39°F / 4°C 30°F / -1°C 70% 29.98 in
(1015 mb)
N 4.6 mph
(N 7 kph)
- 10SM
18:15
Overcast
39°F / 4°C 30°F / -1°C 70% 29.98 in
(1015 mb)
N 6.9 mph
(N 11 kph)
- 10SM
17:55
Overcast
39°F / 4°C 30°F / -1°C 70% 29.98 in
(1015 mb)
N 5.8 mph
(N 9 kph)
- 10SM
17:35
Overcast
39°F / 4°C 30°F / -1°C 70% 29.98 in
(1015 mb)
N 8.1 mph
(N 13 kph)
- 10SM
17:15
Overcast
39°F / 4°C 30°F / -1°C 70% 29.98 in
(1015 mb)
NNW 4.6 mph
(NNW 7 kph)
- 10SM
16:55
Overcast
39°F / 4°C 30°F / -1°C 70% 29.98 in
(1015 mb)
N 5.8 mph
(N 9 kph)
- 10SM
16:35
Overcast
39°F / 4°C 30°F / -1°C 70% 29.98 in
(1015 mb)
NNW 6.9 mph
(NNW 11 kph)
- 10SM
16:15
Overcast
39°F / 4°C 30°F / -1°C 70% 29.98 in
(1015 mb)
NNW 8.1 mph
(NNW 13 kph)
- 10SM
15:55
Overcast
39°F / 4°C 30°F / -1°C 70% 29.98 in
(1015 mb)
NNW 6.9 mph
(NNW 11 kph)
- 10SM
15:35
Overcast
39°F / 4°C 28°F / -2°C 65% 29.98 in
(1015 mb)
NW 6.9 mph
(NW 11 kph)
- 10SM
15:15
Overcast
39°F / 4°C 30°F / -1°C 70% 29.95 in
(1014 mb)
NNW 4.6 mph
(NNW 7 kph)
- 10SM
14:55
Overcast
39°F / 4°C 30°F / -1°C 70% 29.95 in
(1014 mb)
NW 5.8 mph
(NW 9 kph)
- 10SM
14:35
Overcast
39°F / 4°C 32°F / 0°C 75% 29.95 in
(1014 mb)
NW 5.8 mph
(NW 9 kph)
- 10SM
14:15
Overcast
39°F / 4°C 30°F / -1°C 70% 29.95 in
(1014 mb)
NW 6.9 mph
(NW 11 kph)
- 10SM
13:55
Overcast
39°F / 4°C 30°F / -1°C 70% 29.95 in
(1014 mb)
NW 6.9 mph
(NW 11 kph)
- 10SM
13:35
Overcast
39°F / 4°C 30°F / -1°C 70% 29.95 in
(1014 mb)
NW 8.1 mph
(NW 13 kph)
- 10SM
13:15
Overcast
39°F / 4°C 30°F / -1°C 70% 29.95 in
(1014 mb)
NNW 10.4 mph
(NNW 17 kph)
- 10SM
12:55
Overcast
39°F / 4°C 32°F / 0°C 75% 29.95 in
(1014 mb)
NNW 10.4 mph
(NNW 17 kph)
- 10SM
12:35
Overcast
41°F / 5°C 32°F / 0°C 70% 29.95 in
(1014 mb)
NW 11.5 mph
(NW 19 kph)
- 10SM
12:15
Overcast
43°F / 6°C 32°F / 0°C 66% 29.95 in
(1014 mb)
NW 10.4 mph
(NW 17 kph)
- 10SM
11:55
Overcast
43°F / 6°C 36°F / 2°C 76% 29.95 in
(1014 mb)
NW 12.7 mph
(NW 20 kph)
- 10SM
11:35
Overcast
43°F / 6°C 34°F / 1°C 71% 29.92 in
(1013 mb)
NW 13.8 mph
(NW 22 kph)
- 10SM
11:15
Overcast
43°F / 6°C 34°F / 1°C 71% 29.95 in
(1014 mb)
NW 12.7 mph
(NW 20 kph)
- 10SM
10:55
Overcast
43°F / 6°C 36°F / 2°C 76% 29.95 in
(1014 mb)
NW 12.7 mph
(NW 20 kph)
- 9SM
10:35
Overcast
37°F / 3°C 34°F / 1°C 87% 29.95 in
(1014 mb)
NNW 12.7 mph
(NNW 20 kph)
- 8SM
10:15
Overcast
37°F / 3°C 34°F / 1°C 87% 29.95 in
(1014 mb)
NNW 8.1 mph
(NNW 13 kph)
- 10SM
09:55
Overcast
37°F / 3°C 34°F / 1°C 87% 29.95 in
(1014 mb)
N 10.4 mph
(N 17 kph)
- 9SM
09:35
Overcast
39°F / 4°C 30°F / -1°C 70% 29.95 in
(1014 mb)
N 12.7 mph
(N 20 kph)
- 10SM
09:15
Overcast
39°F / 4°C 32°F / 0°C 75% 29.92 in
(1013 mb)
N 11.5 mph
(N 19 kph)
- 10SM
08:55
Overcast
39°F / 4°C 30°F / -1°C 70% 29.89 in
(1012 mb)
N 11.5 mph
(N 19 kph)
- 10SM
08:35
Overcast
39°F / 4°C 32°F / 0°C 75% 29.89 in
(1012 mb)
N 15 mph
(N 24 kph)
- 10SM
08:15
Overcast
39°F / 4°C 34°F / 1°C 81% 29.89 in
(1012 mb)
N 16.1 mph
(N 26 kph)
- 10SM
07:55
Overcast
37°F / 3°C 32°F / 0°C 81% 29.86 in
(1011 mb)
N 15 mph
(N 24 kph)
- 10SM
07:35
Mostly Cloudy
37°F / 3°C 32°F / 0°C 81% 29.86 in
(1011 mb)
N 20.7 mph
(N 33 kph)
- 10SM
07:15
Overcast
39°F / 4°C 34°F / 1°C 81% 29.83 in
(1010 mb)
N 17.3 mph
(N 28 kph)
- 10SM
06:55
Overcast
43°F / 6°C 32°F / 0°C 66% 29.8 in
(1009 mb)
N 20.7 mph
(N 33 kph)
- 10SM
06:35
Overcast
43°F / 6°C 34°F / 1°C 71% 29.8 in
(1009 mb)
N 19.6 mph
(N 32 kph)
- 10SM
06:15
Overcast
43°F / 6°C 34°F / 1°C 71% 29.8 in
(1009 mb)
NNW 21.9 mph
(NNW 35 kph)
- 10SM
05:55
Overcast
43°F / 6°C 34°F / 1°C 71% 29.8 in
(1009 mb)
N 19.6 mph
(N 32 kph)
- 10SM
05:35
Overcast
43°F / 6°C 34°F / 1°C 71% 29.77 in
(1008 mb)
NNW 23 mph
(NNW 37 kph)
- 9SM
05:15
Overcast
43°F / 6°C 36°F / 2°C 76% 29.77 in
(1008 mb)
NNW 20.7 mph
(NNW 33 kph)
- 8SM
04:55
Overcast
43°F / 6°C 34°F / 1°C 71% 29.77 in
(1008 mb)
NNW 27.6 mph
(NNW 44 kph)
- 8SM
04:35
Overcast
43°F / 6°C 34°F / 1°C 71% 29.74 in
(1007 mb)
NNW 25.3 mph
(NNW 41 kph)
- 10SM
04:15
Overcast
43°F / 6°C 34°F / 1°C 71% 29.74 in
(1007 mb)
NNW 28.8 mph
(NNW 46 kph)
- 7SM
03:55
Overcast
43°F / 6°C 36°F / 2°C 76% 29.71 in
(1006 mb)
NNW 24.2 mph
(NNW 39 kph)
- 5SM
03:35
Overcast
43°F / 6°C 36°F / 2°C 76% 29.71 in
(1006 mb)
N 28.8 mph
(N 46 kph)
- 4SM
03:15
Overcast
43°F / 6°C 36°F / 2°C 76% 29.68 in
(1005 mb)
N 29.9 mph
(N 48 kph)
- 5SM
02:55
Overcast
43°F / 6°C 36°F / 2°C 76% 29.65 in
(1004 mb)
N 26.5 mph
(N 43 kph)
- 3SM
02:35
Overcast
43°F / 6°C 36°F / 2°C 76% 29.65 in
(1004 mb)
N 26.5 mph
(N 43 kph)
- 3SM
02:15
Overcast
43°F / 6°C 36°F / 2°C 76% 29.65 in
(1004 mb)
N 24.2 mph
(N 39 kph)
- 5SM
01:55
Overcast
43°F / 6°C 36°F / 2°C 76% 29.62 in
(1003 mb)
N 29.9 mph
(N 48 kph)
- 5SM
01:35
Overcast
43°F / 6°C 36°F / 2°C 76% 29.59 in
(1002 mb)
N 29.9 mph
(N 48 kph)
- 5SM
01:15
Overcast
43°F / 6°C 36°F / 2°C 76% 29.59 in
(1002 mb)
N 29.9 mph
(N 48 kph)
- 5SM
00:55
Overcast
43°F / 6°C 37°F / 3°C 81% 29.59 in
(1002 mb)
N 28.8 mph
(N 46 kph)
- 2 1/2SM
00:35
Overcast
41°F / 5°C 37°F / 3°C 87% 29.59 in
(1002 mb)
N 32.2 mph
(N 52 kph)
- 2 1/2SM
00:15
Overcast
43°F / 6°C 37°F / 3°C 81% 29.56 in
(1001 mb)
N 32.2 mph
(N 52 kph)
- 3SM
Time Weather Temperature Dewpoint Humidity Pressure Winds Precip Visibility


Weather for websites

WeatherForYou.com, LLC is not responsible for any damages or problems caused by this service. Current weather conditions are obtained from the closest station including government and personal stations which may have varying degrees of accuracy. Weather forecasts are derived from the NOAA NDFD. Like all things, this site belongs to Jesus Christ... He just trusts me to maintain it. If you have any questions or comments email webmaster@weatherforyou.com

Copyright © 2014, WeatherForYou.com LLC. All rights reserved.